Wind_Speed
22 26 31 35 34 35 32 30 31 30 30 32 35 40 41 38 37 36 31 28 24 20 19 16 8 6 3 10 7 2 11 15 13 12 7 16 13 11 13 6 5 3 4 7 8
27 32 33 34 32 29 31 33 35 35 34 32 35 37 38 41 40 36 34 29 26 24 20 15 11 8 4 6 1 8 6 13 16 17 9 16 15 12 9 9 6 8 10 6 5
29 30 31 28 27 30 35 39 40 38 31 28 33 33 36 38 42 38 34 32 29 27 21 16 16 14 8 6 1 7 13 9 13 17 15 16 15 13 14 10 9 10 8 6 2
27 27 27 25 28 34 34 37 38 34 25 25 29 31 33 38 43 39 39 36 32 29 23 20 17 12 11 14 6 11 11 8 13 12 15 19 18 14 16 14 15 14 13 12 12
28 27 26 26 28 30 27 22 21 23 24 25 28 31 33 38 43 41 42 38 35 31 24 23 20 18 10 5 10 2 11 8 9 12 10 16 15 14 18 17 18 17 17 17 15
28 27 26 25 26 27 25 23 20 23 25 28 30 31 34 37 44 42 45 41 37 34 29 27 22 22 17 2 4 1 10 8 8 6 9 12 11 9 13 16 14 13 11 13 11
28 27 28 24 24 24 22 22 21 19 22 26 32 33 35 40 46 45 48 45 40 37 34 30 23 23 14 5 15 10 8 8 5 5 5 11 10 10 8 13 11 9 12 11 11
29 28 27 25 23 22 22 22 20 17 19 24 31 34 35 40 44 49 52 47 43 40 37 31 28 24 29 14 19 9 7 7 7 5 8 12 12 11 11 8 9 13 13 13 12
32 29 28 26 23 22 21 21 18 15 19 25 29 32 35 40 47 51 54 50 47 44 40 35 28 28 34 21 24 19 13 8 10 11 8 8 11 12 10 6 10 11 11 9 9
36 33 32 29 24 23 21 19 18 13 19 24 28 32 35 39 46 52 55 53 50 47 43 41 35 30 36 25 27 26 22 14 15 14 7 2 6 10 7 6 5 7 8 9 8
39 37 36 32 27 22 21 19 16 10 16 22 27 30 36 41 49 53 55 55 51 48 46 41 32 41 37 35 25 24 21 21 13 13 12 6 7 5 4 4 3 2 4 5 6
43 41 39 36 31 25 22 19 13 11 18 24 26 27 34 42 51 56 57 54 52 52 48 44 32 38 36 33 28 28 21 17 17 17 13 10 7 8 2 1 1 2 2 2 2
45 45 43 40 35 30 24 21 13 14 18 23 24 29 31 44 52 54 56 57 55 53 49 45 36 39 39 37 32 27 24 22 21 25 27 19 14 11 9 6 3 6 7 5 6
38 41 46 44 39 34 29 22 15 17 17 21 26 29 36 43 53 55 56 57 54 53 49 42 37 37 38 35 36 32 22 21 27 26 30 20 16 14 16 10 8 9 9 8 8
35 36 40 44 44 39 33 27 21 19 18 25 30 32 39 45 50 55 60 58 55 54 48 38 41 39 35 37 35 32 30 14 19 22 26 29 20 19 21 17 14 17 14 14 13
36 37 38 39 43 45 37 33 28 23 21 28 29 36 41 44 55 58 59 58 59 57 55 49 46 41 35 35 38 37 27 21 24 30 23 23 22 27 26 17 23 20 14 17 19
36 38 38 40 37 45 43 39 35 30 26 30 23 33 41 47 53 58 61 61 58 55 55 52 54 46 42 39 36 43 37 33 33 41 39 29 33 17 30 27 28 19 19 21 20
37 41 39 40 37 40 45 44 43 36 30 28 24 26 37 45 53 59 63 64 62 59 59 54 57 55 56 41 44 43 48 48 43 39 40 34 29 29 28 36 34 32 23 27 24
41 43 43 38 40 39 41 47 52 43 33 32 32 31 34 45 52 58 64 68 67 63 61 60 63 58 55 53 42 52 46 43 47 43 37 39 46 37 34 31 29 30 30 33 30
42 46 41 41 43 41 39 45 57 49 42 39 36 34 32 38 45 56 63 69 69 67 66 66 69 61 60 53 42 51 56 50 45 43 40 37 38 42 36 31 31 32 40 37 40
40 46 47 46 42 42 39 49 62 57 48 44 39 39 37 35 40 44 55 67 72 71 69 69 68 64 63 58 51 43 57 56 59 57 50 46 41 41 35 34 36 36 44 46 42
42 47 51 49 46 44 46 53 61 61 53 49 45 43 40 38 37 42 48 61 69 74 71 70 72 68 66 64 57 50 61 58 55 57 49 45 41 43 39 41 45 48 53 55 44
42 49 52 50 51 48 51 55 57 60 59 55 53 47 43 42 39 41 49 57 68 72 74 76 72 71 68 67 61 51 60 67 63 60 56 51 50 52 49 44 45 48 40 43 52
45 48 55 57 55 52 52 54 52 57 60 61 60 54 47 46 43 42 46 58 65 69 71 76 76 73 72 74 70 58 56 60 61 57 56 57 60 56 55 50 49 37 35 41 46
45 49 57 59 58 58 56 58 58 56 61 66 63 58 51 49 47 45 45 53 63 70 71 74 75 74 74 74 70 67 60 58 57 57 57 60 59 53 58 59 58 56 54 53 59
45 49 58 60 58 60 58 56 59 61 63 66 68 64 58 52 49 48 49 48 57 63 70 72 69 74 72 73 69 67 62 63 59 52 54 63 55 49 60 56 58 55 58 65 69
44 50 55 63 62 61 60 58 59 58 57 65 66 65 64 56 54 53 52 49 52 58 65 68 69 70 73 70 73 70 68 66 68 65 65 60 56 57 60 60 58 61 55 59 63
Wind_Direction
261 265 270 280 280 276 271 270 270 276 275 259 244 238 231 225 222 217 217 210 206 201 211 215 201 149 83 53 12 342 64 49 52 91 103 109 123 160 194 186 130 124 135 154 170
269 270 276 277 276 275 277 276 275 279 275 252 240 235 231 224 220 209 210 209 201 198 205 205 166 135 125 94 268 313 90 67 59 68 78 92 102 108 136 154 173 164 155 181 170
273 275 276 275 282 284 283 280 276 275 267 243 232 232 230 223 217 210 208 203 200 196 197 185 167 141 187 202 277 36 75 75 74 59 66 71 103 113 119 127 141 131 151 189 213
275 276 275 280 285 289 288 283 271 269 249 235 226 226 223 217 214 204 199 196 198 193 193 180 165 160 187 154 236 66 86 71 51 50 60 67 80 102 106 117 112 109 112 103 92
279 274 279 281 290 297 292 299 274 252 239 228 224 221 217 213 207 201 195 195 195 190 186 180 176 167 199 201 174 322 76 58 42 16 50 58 82 94 107 105 101 97 96 92 85
273 277 276 284 297 303 296 296 281 255 240 229 221 216 213 210 203 200 194 194 194 189 184 188 182 170 155 244 155 43 118 181 40 11 60 64 57 99 108 102 107 101 102 100 92
272 275 275 282 296 309 302 301 289 263 237 225 218 212 209 207 201 199 192 192 195 188 188 188 172 154 138 131 199 250 191 137 115 90 93 88 69 94 90 113 110 84 103 117 92
267 272 274 280 293 308 304 305 297 258 228 217 209 207 206 205 201 195 190 191 194 191 190 179 174 161 147 203 165 135 219 179 104 131 145 95 91 93 84 103 110 93 89 88 88
261 266 269 275 286 301 312 308 306 246 219 210 204 202 205 201 198 189 191 190 194 191 192 174 180 183 169 180 189 175 190 187 148 143 122 85 77 101 100 92 97 88 89 84 86
261 261 265 270 278 292 310 309 311 255 217 205 199 199 204 198 196 192 191 190 194 194 192 190 182 187 191 202 185 199 197 187 159 155 130 67 85 79 64 75 64 101 106 105 94
258 258 261 265 269 281 294 307 311 265 220 208 203 201 200 196 196 192 194 193 195 197 196 192 191 201 196 187 188 177 175 173 175 175 180 183 233 1 82 42 41 112 124 107 90
256 256 256 257 263 267 281 295 295 263 223 210 205 204 201 195 195 193 193 198 198 200 197 197 196 200 201 191 195 189 177 165 189 184 206 228 249 262 251 132 185 244 189 161 119
254 253 254 254 255 258 261 274 291 262 226 217 215 209 205 198 195 194 196 195 202 201 201 203 201 204 204 194 199 190 197 197 195 190 208 218 204 235 236 205 216 230 249 235 260
256 253 249 250 250 251 252 256 262 255 248 222 220 210 207 202 197 195 198 200 200 203 203 204 203 210 213 203 197 195 210 209 215 217 218 222 226 227 236 217 206 234 247 234 249
262 256 250 246 246 246 243 246 250 254 238 226 219 211 205 204 200 200 197 201 200 204 201 200 205 207 211 208 203 194 193 201 202 195 228 236 222 241 250 229 214 225 254 266 261
263 258 253 244 241 240 240 241 241 243 240 234 222 214 208 204 203 200 201 202 202 203 204 202 198 201 211 213 204 201 197 225 236 219 232 228 225 231 239 232 234 250 256 269 272
265 259 253 246 240 237 235 236 237 236 236 241 234 218 212 207 207 204 202 204 205 206 208 205 198 197 203 204 210 197 198 215 234 242 248 237 253 253 243 239 249 250 267 268 277
264 258 253 248 240 236 232 233 235 230 233 243 233 228 219 213 211 209 205 206 206 203 210 209 207 204 205 199 206 210 206 213 228 237 243 244 250 238 256 250 258 269 255 254 259
269 255 252 248 241 233 231 231 231 225 228 230 232 224 215 213 213 212 210 209 207 207 206 211 212 211 211 211 208 210 210 223 221 235 239 242 239 239 251 253 270 265 264 266 254
267 257 248 242 237 232 227 230 230 223 223 229 230 227 227 216 216 214 212 213 211 209 208 211 212 211 212 213 212 218 218 221 224 229 241 246 244 246 244 253 263 271 267 266 271
260 252 242 239 236 231 226 227 229 221 219 225 226 226 225 223 219 217 217 217 214 210 211 211 215 211 210 215 214 220 219 220 218 228 234 236 242 249 248 257 256 263 262 266 272
254 242 238 235 233 228 225 230 230 221 217 220 225 224 223 224 224 219 217 218 217 215 211 213 214 214 212 214 218 224 220 221 224 225 229 234 239 244 253 246 248 264 265 266 269
240 236 234 232 230 230 227 230 231 224 216 219 222 224 221 221 222 221 219 217 216 217 215 214 214 216 214 214 219 223 221 223 225 230 233 234 241 242 246 252 261 264 271 272 272
231 227 227 225 222 222 224 229 233 229 222 220 223 219 217 221 220 221 223 219 215 215 217 218 216 216 216 219 219 225 227 229 233 240 242 242 245 251 251 250 252 262 271 269 262
229 222 222 230 221 223 223 223 225 226 223 220 220 222 220 219 219 219 223 223 219 214 214 219 220 219 221 223 226 229 231 233 235 241 249 248 248 249 252 249 250 253 257 257 261
229 222 220 221 225 221 222 228 227 229 222 218 218 219 217 222 221 219 222 222 222 221 217 218 221 221 224 228 226 229 229 230 229 237 247 245 252 246 254 253 251 257 264 262 266
235 225 221 221 221 223 219 222 226 227 228 224 217 221 220 217 219 223 223 221 219 221 222 222 222 224 224 229 230 230 232 233 233 234 245 246 243 248 253 255 259 265 259 263 265
Height
10978 10979 10979 10978 10977 10976 10976 10975 10974 10975 10974 10974 10976 10980 10985 10991 10995 11000 11005 11009 11014 11018 11019 11020 11026 11028 11029 11027 11026 11024 11023 11021 11018 11016 11017 11013 11016 11018 11020 11021 11023 11024 11024 11027 11028
10974 10973 10973 10972 10970 10969 10968 10967 10966 10966 10965 10965 10967 10972 10978 10984 10988 10996 11000 11006 11011 11014 11016 11019 11026 11029 11027 11027 11026 11024 11024 11023 11021 11019 11021 11016 11017 11020 11021 11023 11024 11025 11026 11027 11030
10967 10967 10966 10965 10964 10963 10960 10958 10957 10957 10956 10956 10960 10965 10969 10975 10982 10991 10997 11003 11007 11010 11013 11019 11023 11026 11025 11025 11026 11026 11026 11025 11023 11022 11022 11019 11017 11021 11021 11025 11026 11026 11027 11028 11029
10961 10960 10960 10959 10958 10955 10952 10947 10946 10946 10948 10950 10953 10958 10962 10967 10975 10984 10991 10997 11001 11006 11011 11015 11021 11024 11024 11025 11026 11028 11027 11026 11026 11027 11028 11021 11020 11023 11024 11027 11027 11028 11030 11030 11030
10954 10954 10953 10953 10951 10947 10944 10940 10937 10938 10941 10944 10947 10951 10954 10959 10969 10979 10987 10993 10997 11003 11010 11014 11016 11021 11024 11025 11027 11029 11029 11029 11029 11030 11031 11026 11024 11026 11028 11029 11029 11030 11031 11032 11033
10948 10947 10947 10947 10945 10940 10937 10935 10933 10932 10934 10937 10940 10944 10947 10953 10963 10974 10982 10988 10993 11001 11007 11009 11012 11016 11024 11028 11029 11030 11031 11036 11032 11033 11031 11027 11028 11029 11029 11030 11032 11033 11034 11035 11036
10942 10942 10941 10940 10938 10934 10932 10929 10926 10925 10927 10929 10933 10936 10941 10947 10956 10966 10976 10983 10989 10997 11003 11006 11013 11018 11023 11022 11026 11029 11032 11031 11032 11029 11030 11028 11029 11030 11032 11032 11034 11034 11036 11037 11037
10935 10935 10934 10934 10932 10929 10926 10923 10920 10919 10920 10923 10926 10931 10937 10942 10951 10959 10970 10979 10984 10993 10998 11004 11010 11018 11020 11013 11020 11026 11028 11030 11029 11029 11029 11030 11030 11032 11033 11033 11034 11035 11036 11038 11038
10928 10928 10927 10927 10926 10925 10922 10918 10915 10914 10915 10918 10922 10928 10932 10938 10943 10954 10965 10972 10978 10986 10994 11001 11007 11016 11021 11022 11022 11030 11026 11029 11030 11030 11029 11032 11033 11033 11035 11035 11034 11036 11037 11039 11040
10920 10920 10920 10920 10920 10920 10918 10914 10912 10911 10912 10915 10918 10922 10927 10935 10942 10950 10959 10968 10973 10981 10989 10996 11002 11010 11015 11019 11022 11025 11026 11027 11029 11028 11029 11031 11033 11033 11036 11036 11035 11037 11039 11040 11041
10911 10912 10913 10914 10914 10914 10914 10912 10911 10910 10911 10914 10916 10918 10921 10929 10937 10946 10956 10963 10971 10977 10982 10992 11000 11002 11008 11014 11017 11021 11022 11023 11025 11025 11028 11031 11033 11035 11034 11036 11036 11038 11040 11041 11042
10900 10902 10904 10906 10907 10908 10909 10909 10908 10908 10909 10911 10913 10916 10920 10927 10932 10939 10948 10961 10967 10970 10978 10986 10991 10996 11002 11008 11011 11014 11015 11017 11023 11025 11028 11031 11033 11033 11036 11036 11037 11039 11039 11040 11042
10887 10890 10893 10895 10899 10901 10904 10904 10906 10903 10903 10908 10912 10914 10919 10921 10928 10937 10943 10949 10959 10967 10975 10981 10986 10990 10994 11001 11005 11008 11010 11014 11020 11023 11024 11026 11028 11031 11034 11035 11035 11037 11039 11040 11041
10875 10877 10881 10884 10889 10892 10896 10899 10900 10899 10900 10903 10905 10911 10912 10919 10922 10930 10938 10944 10954 10963 10970 10977 10984 10987 10992 10997 11000 11003 11007 11010 11013 11018 11021 11023 11027 11029 11033 11032 11032 11034 11036 11037 11038
10864 10865 10867 10872 10877 10882 10887 10891 10894 10893 10896 10896 10898 10903 10907 10910 10923 10926 10929 10938 10947 10955 10964 10970 10976 10981 10985 10991 10993 10997 11002 11007 11010 11015 11019 11022 11026 11030 11029 11028 11028 11031 11033 11032 11034
10854 10855 10856 10860 10865 10869 10877 10881 10884 10886 10889 10887 10891 10896 10900 10908 10909 10918 10926 10933 10938 10947 10954 10963 10971 10977 10981 10986 10987 10993 11000 11004 11006 11010 11014 11019 11020 11024 11028 11026 11025 11025 11026 11027 11029
10844 10844 10845 10847 10855 10857 10865 10870 10873 10877 10881 10880 10887 10889 10894 10899 10904 10911 10918 10925 10935 10944 10950 10955 10962 10968 10973 10979 10985 10992 10992 10996 11001 11003 11005 11011 11014 11019 11023 11024 11025 11025 11024 11023 11023
10831 10831 10833 10837 10842 10846 10853 10858 10860 10867 10872 10875 10882 10884 10888 10892 10897 10903 10911 10917 10926 10934 10939 10947 10955 10956 10962 10971 10977 10981 10985 10987 10993 10994 10999 11005 11011 11016 11018 11014 11014 11022 11019 11020 11019
10816 10817 10820 10827 10829 10835 10840 10845 10843 10854 10865 10865 10867 10871 10875 10880 10887 10893 10901 10906 10915 10924 10931 10936 10938 10946 10957 10962 10971 10975 10976 10980 10985 10988 10991 10995 10998 11002 11006 11007 11007 11007 11008 11008 11011
10800 10802 10810 10810 10814 10821 10828 10830 10829 10842 10850 10855 10858 10864 10868 10873 10878 10884 10891 10896 10905 10914 10920 10923 10924 10940 10946 10956 10960 10964 10970 10973 10975 10978 10982 10988 10990 10993 10995 10998 11003 11005 10998 10999 11003
10783 10786 10791 10796 10802 10809 10816 10811 10809 10825 10837 10844 10850 10852 10858 10863 10870 10878 10884 10888 10894 10902 10908 10912 10920 10931 10939 10947 10951 10952 10961 10963 10965 10969 10971 10976 10981 10981 10985 10988 10995 10996 10992 10992 10998
10766 10766 10774 10781 10788 10794 10797 10792 10795 10811 10825 10831 10837 10840 10847 10853 10859 10865 10870 10875 10882 10888 10899 10904 10908 10917 10929 10934 10937 10940 10946 10952 10956 10959 10961 10965 10971 10974 10979 10981 10987 10988 10984 10987 10991
10745 10747 10758 10765 10772 10778 10781 10782 10786 10798 10810 10817 10821 10829 10836 10843 10848 10855 10857 10860 10868 10879 10888 10889 10900 10907 10917 10924 10928 10932 10935 10937 10945 10949 10956 10957 10961 10964 10971 10978 10981 10981 10983 10982 10980
10724 10732 10737 10742 10752 10760 10765 10769 10776 10785 10798 10803 10807 10817 10824 10830 10837 10844 10847 10849 10857 10867 10875 10881 10887 10900 10910 10911 10915 10922 10925 10929 10936 10942 10948 10948 10944 10956 10960 10970 10968 10976 10980 10979 10976
10704 10714 10721 10724 10738 10743 10750 10751 10756 10765 10774 10785 10796 10807 10816 10820 10827 10832 10837 10842 10848 10853 10862 10872 10883 10891 10896 10901 10908 10912 10913 10920 10929 10931 10928 10930 10935 10948 10947 10952 10960 10967 10971 10969 10965
10688 10698 10705 10709 10720 10726 10736 10744 10748 10753 10764 10773 10783 10791 10802 10812 10820 10822 10826 10834 10842 10852 10855 10861 10874 10880 10887 10891 10899 10900 10908 10911 10913 10913 10911 10914 10936 10934 10928 10944 10951 10956 10959 10956 10965
10675 10682 10687 10694 10703 10709 10722 10728 10732 10742 10752 10758 10773 10784 10791 10800 10808 10815 10819 10826 10834 10841 10848 10856 10859 10866 10875 10879 10884 10894 10897 10897 10897 10898 10899 10913 10923 10920 10928 10933 10936 10937 10939 10937 10941